Waskish, MN

6:11 AM CDT on September 28, 2016 (GMT -0500)
Waskish Municipal

Weather History for KVWU - January, 2014

Change the Weather History Date:

Monday, January 27, 2014

  Actual Average (KBDE) Record (KBDE)
Temperature  
Mean Temperature -19 °F -  
Max Temperature -13 °F 14 °F 46 °F (1989)
Min Temperature -25 °F -11 °F -38 °F (1950)
Degree Days  
Heating Degree Days 84    
Moisture  
Dew Point -26 °F    
Average Humidity 73    
Maximum Humidity 77    
Minimum Humidity 63    
Precipitation  
Precipitation 0.00 in - - ()
Sea Level Pressure  
Sea Level Pressure 30.22 in    
Wind  
Wind Speed 10 mph (WSW)    
Max Wind Speed 16 mph    
Max Gust Speed 21 mph    
Visibility 9 miles    
Events      
Averages and records for this station are not official NWS values.
T = Trace of Precipitation, MM = Missing Value Source: NWS Daily Summary

Daily Weather History Graph

Daily Weather History Graph

Search for Another Location

Airport or City:

Trip Planner

Search our weather history database for the weather conditions in past years. The results will help you decide how hot, cold, wet, or windy it might be!

Date:

Astronomy

Jan. 27, 2014 Rise Set
Actual Time 7:52 AM CST 5:09 PM CST
Civil Twilight 7:18 AM CST 5:43 PM CST
Nautical Twilight 6:40 AM CST 6:21 PM CST
Astronomical Twilight 6:04 AM CST 6:58 PM CST
Moon 4:37 AM CST (1/27) 1:53 PM CST (1/27)
Length of Visible Light 10h 25m
Length of Day
9h 17m
Waning Crescent, 14% of the Moon is Illuminated
Jan 27
Waning Crescent
Jan 30
New
Feb 6
First Quarter
Feb 14
Full
Feb 22
Last Quarter

Hourly Weather History & Observations

Time (CST) Temp. Windchill Dew Point Humidity Pressure Visibility Wind Dir Wind Speed Gust Speed Precip Events Conditions
12:10 AM -18.4 °F -39.1 °F -25.6 °F 70% 30.07 in 10.0 mi WNW 10.4 mph - N/A   Clear
12:30 AM -18.4 °F -40.2 °F -25.6 °F 70% 30.07 in 10.0 mi WNW 11.5 mph - N/A   Clear
12:50 AM -20.2 °F -41.3 °F -25.6 °F 76% 30.07 in 10.0 mi WNW 10.4 mph 17.3 mph N/A   Clear
1:09 AM -20.2 °F -41.3 °F -25.6 °F 76% 30.08 in 10.0 mi WNW 10.4 mph - N/A   Clear
1:30 AM -20.2 °F -42.4 °F -25.6 °F 76% 30.09 in 10.0 mi WNW 11.5 mph - N/A   Clear
1:50 AM -20.2 °F -42.4 °F -27.4 °F 69% 30.09 in 10.0 mi WNW 11.5 mph - N/A   Clear
2:09 AM -20.2 °F -41.3 °F -27.4 °F 69% 30.10 in 10.0 mi WNW 10.4 mph - N/A   Clear
2:30 AM -20.2 °F -42.4 °F -25.6 °F 76% 30.11 in 4.0 mi WNW 11.5 mph 16.1 mph N/A   Haze
2:50 AM -20.2 °F -41.3 °F -25.6 °F 76% 30.13 in 5.0 mi WNW 10.4 mph - N/A   Haze
3:10 AM -20.2 °F -40.1 °F -25.6 °F 76% 30.13 in 4.0 mi West 9.2 mph - N/A   Haze
3:30 AM -20.2 °F -40.1 °F -27.4 °F 69% 30.15 in 5.0 mi WNW 9.2 mph - N/A   Haze
3:50 AM -20.2 °F -40.1 °F -27.4 °F 69% 30.15 in 7.0 mi West 9.2 mph - N/A   Clear
4:10 AM -22.0 °F -41.0 °F -27.4 °F 76% 30.16 in 10.0 mi West 8.1 mph - N/A   Clear
4:30 AM -22.0 °F -42.3 °F -29.2 °F 69% 30.17 in 10.0 mi West 9.2 mph - N/A   Clear
4:50 AM -23.8 °F -44.5 °F -29.2 °F 76% 30.18 in 10.0 mi West 9.2 mph - N/A   Clear
5:10 AM -23.8 °F -43.2 °F -29.2 °F 76% 30.19 in 10.0 mi West 8.1 mph - N/A   Clear
5:30 AM -23.8 °F -43.2 °F -29.2 °F 76% 30.20 in 10.0 mi WSW 8.1 mph - N/A   Clear
5:50 AM -23.8 °F -41.6 °F -31.0 °F 69% 30.20 in 10.0 mi West 6.9 mph - N/A   Clear
6:10 AM -25.6 °F -45.4 °F -31.0 °F 76% 30.21 in 10.0 mi West 8.1 mph - N/A   Clear
6:30 AM -23.8 °F -44.5 °F -31.0 °F 69% 30.21 in 10.0 mi West 9.2 mph - N/A   Clear
6:50 AM -23.8 °F -44.5 °F -31.0 °F 69% 30.22 in 10.0 mi West 9.2 mph - N/A   Clear
7:10 AM -25.6 °F -45.4 °F -31.0 °F 76% 30.22 in 10.0 mi WSW 8.1 mph - N/A   Clear
7:30 AM -25.6 °F -48.0 °F -31.0 °F 76% 30.23 in 10.0 mi WSW 10.4 mph - N/A   Clear
7:50 AM -25.6 °F -46.8 °F -31.0 °F 76% 30.23 in 10.0 mi West 9.2 mph - N/A   Clear
8:10 AM -25.6 °F -45.4 °F -31.0 °F 76% 30.24 in 10.0 mi West 8.1 mph - N/A   Clear
8:30 AM -23.8 °F -43.2 °F -31.0 °F 69% 30.24 in 10.0 mi West 8.1 mph - N/A   Clear
8:50 AM -23.8 °F -44.5 °F -29.2 °F 76% 30.25 in 10.0 mi West 9.2 mph - N/A   Clear
9:10 AM -22.0 °F -41.0 °F -29.2 °F 69% 30.26 in 10.0 mi West 8.1 mph - N/A   Clear
9:30 AM -22.0 °F -39.4 °F -27.4 °F 76% 30.26 in 10.0 mi West 6.9 mph - N/A   Clear
9:50 AM -20.2 °F -37.3 °F -27.4 °F 69% 30.26 in 10.0 mi West 6.9 mph - N/A   Clear
10:08 AM -20.2 °F -38.8 °F -27.4 °F 69% 30.27 in 10.0 mi West 8.1 mph - N/A   Clear
10:29 AM -18.4 °F -37.9 °F -27.4 °F 63% 30.27 in 10.0 mi WSW 9.2 mph - N/A   Clear
10:37 AM -18.4 °F -37.9 °F -25.6 °F 70% 30.27 in 10.0 mi WSW 9.2 mph - N/A   Clear
11:10 AM -18.4 °F -41.2 °F -25.6 °F 70% 30.28 in 10.0 mi WSW 12.7 mph - N/A   Clear
11:30 AM -16.6 °F -36.8 °F -25.6 °F 64% 30.28 in 10.0 mi WSW 10.4 mph - N/A   Clear
11:50 AM -16.6 °F -36.8 °F -23.8 °F 70% 30.27 in 10.0 mi WSW 10.4 mph - N/A   Clear
12:10 PM -14.8 °F -35.6 °F -23.8 °F 64% 30.27 in 10.0 mi WSW 11.5 mph - N/A   Scattered Clouds
12:30 PM -14.8 °F -35.6 °F -23.8 °F 64% 30.26 in 10.0 mi WSW 11.5 mph - N/A   Scattered Clouds
12:49 PM -14.8 °F -36.6 °F -22.0 °F 70% 30.26 in 7.0 mi WSW 12.7 mph - N/A   Scattered Clouds
1:10 PM -13.0 °F -33.4 °F -20.2 °F 70% 30.26 in 3.0 mi WSW 11.5 mph - N/A   Haze
1:30 PM -14.8 °F -39.1 °F -20.2 °F 77% 30.26 in 2.5 mi WSW 16.1 mph 20.7 mph N/A   Haze
1:49 PM -13.0 °F -36.0 °F -20.2 °F 70% 30.25 in 4.0 mi WSW 15.0 mph 18.4 mph N/A   Haze
2:10 PM -13.0 °F -35.2 °F -20.2 °F 70% 30.25 in 10.0 mi WSW 13.8 mph - N/A   Clear
2:30 PM -13.0 °F -36.0 °F -20.2 °F 70% 30.25 in 7.0 mi WSW 15.0 mph - N/A   Clear
2:50 PM -13.0 °F -34.3 °F -20.2 °F 70% 30.25 in 7.0 mi WSW 12.7 mph 18.4 mph N/A   Clear
3:10 PM -14.8 °F -37.5 °F -20.2 °F 77% 30.25 in 7.0 mi SW 13.8 mph - N/A   Clear
3:30 PM -14.8 °F -36.6 °F -20.2 °F 77% 30.25 in 7.0 mi SW 12.7 mph - N/A   Clear
3:50 PM -14.8 °F -37.5 °F -20.2 °F 77% 30.26 in 7.0 mi SW 13.8 mph - N/A   Clear
4:10 PM -14.8 °F -35.6 °F -20.2 °F 77% 30.26 in 10.0 mi SW 11.5 mph - N/A   Clear
4:30 PM -16.6 °F -37.9 °F -22.0 °F 76% 30.26 in 10.0 mi SW 11.5 mph - N/A   Clear
4:50 PM -16.6 °F -35.7 °F -22.0 °F 76% 30.26 in 10.0 mi SW 9.2 mph - N/A   Clear
5:10 PM -16.6 °F -35.7 °F -23.8 °F 70% 30.26 in 10.0 mi WSW 9.2 mph - N/A   Clear
5:29 PM -18.4 °F -37.9 °F -23.8 °F 76% 30.26 in 10.0 mi WSW 9.2 mph - N/A   Clear
5:50 PM -18.4 °F -37.9 °F -23.8 °F 76% 30.26 in 10.0 mi WSW 9.2 mph - N/A   Clear
6:10 PM -18.4 °F -37.9 °F -25.6 °F 70% 30.26 in 10.0 mi SW 9.2 mph - N/A   Clear
6:29 PM -18.4 °F -39.1 °F -25.6 °F 70% 30.26 in 10.0 mi SW 10.4 mph - N/A   Clear
6:50 PM -18.4 °F -41.2 °F -23.8 °F 76% 30.26 in 10.0 mi SW 12.7 mph - N/A   Clear
7:10 PM -18.4 °F -41.2 °F -25.6 °F 70% 30.26 in 10.0 mi SW 12.7 mph - N/A   Clear
7:29 PM -18.4 °F -39.1 °F -25.6 °F 70% 30.26 in 10.0 mi SW 10.4 mph - N/A   Clear
7:50 PM -18.4 °F -37.9 °F -25.6 °F 70% 30.25 in 10.0 mi SW 9.2 mph - N/A   Clear
8:10 PM -18.4 °F -40.2 °F -23.8 °F 76% 30.25 in 10.0 mi SW 11.5 mph - N/A   Clear
8:29 PM -18.4 °F -41.2 °F -23.8 °F 76% 30.24 in 10.0 mi SW 12.7 mph - N/A   Mostly Cloudy
8:50 PM -18.4 °F -39.1 °F -23.8 °F 76% 30.24 in 10.0 mi SW 10.4 mph - N/A   Scattered Clouds
9:10 PM -18.4 °F -39.1 °F -23.8 °F 76% 30.24 in 10.0 mi SW 10.4 mph - N/A   Clear
9:29 PM -18.4 °F -39.1 °F -23.8 °F 76% 30.24 in 10.0 mi SW 10.4 mph - N/A   Clear
9:50 PM -18.4 °F -37.9 °F -23.8 °F 76% 30.24 in 10.0 mi WSW 9.2 mph - N/A   Clear
10:10 PM -20.2 °F -41.3 °F -25.6 °F 76% 30.24 in 10.0 mi SW 10.4 mph - N/A   Clear
10:29 PM -20.2 °F -40.1 °F -25.6 °F 76% 30.23 in 10.0 mi WSW 9.2 mph - N/A   Clear
10:50 PM -20.2 °F -38.8 °F -25.6 °F 76% 30.22 in 10.0 mi SW 8.1 mph - N/A   Clear
11:10 PM -22.0 °F -42.3 °F -27.4 °F 76% 30.22 in 10.0 mi SW 9.2 mph - N/A   Clear
11:29 PM -22.0 °F -43.6 °F -27.4 °F 76% 30.21 in 10.0 mi SW 10.4 mph - N/A   Clear
11:50 PM -22.0 °F -43.6 °F -27.4 °F 76% 30.21 in 10.0 mi SW 10.4 mph - N/A   Clear